When you browse on this site, cookies collect data to enhance your experience and personalize the content and advertising you see.
Visit our Privacy Policy to learn more. By continuing to use the site, you agree to this use of cookies and data.
  • en France
  • Liste des pays
  • À 7 jours
  • Température de l'eau
  • Carte satellitaire
  • Carte météo
  • Widgets météo
  • user-avatar
    Se connecter

    Météo par heure à Daloa

    Ce jour, 24 Janvier, Jeudi

    Heure Température Précipitation Vent Pression Humidité
    00:00 +26°C° 0 mm 1 m/s 737 mmHg 30%
    01:00 +26°C° 0 mm 1 m/s 736 mmHg 49%
    02:00 +26°C° 0 mm 1 m/s 736 mmHg 68%
    03:00 +25°C° 0 mm 2 m/s 736 mmHg 87%
    04:00 +26°C° 0 mm 2 m/s 736 mmHg 86%
    05:00 +26°C° 0 mm 2 m/s 736 mmHg 86%
    06:00 +26°C° 0 mm 2 m/s 736 mmHg 85%
    07:00 +26°C° 0 mm 2 m/s 737 mmHg 83%
    08:00 +27°C° 0 mm 2 m/s 737 mmHg 82%
    09:00 +27°C° 0 mm 2 m/s 737 mmHg 80%
    10:00 +29°C° 0 mm 2 m/s 737 mmHg 69%
    11:00 +32°C° 0 mm 1 m/s 737 mmHg 58%
    12:00 +34°C° 0 mm 1 m/s 737 mmHg 46%
    13:00 +36°C° 0 mm 1 m/s 736 mmHg 40%
    14:00 +37°C° 0 mm 1 m/s 735 mmHg 33%
    15:00 +39°C° 0 mm 1 m/s 734 mmHg 26%
    16:00 +37°C° 0 mm 1 m/s 734 mmHg 30%
    17:00 +36°C° 0 mm 1 m/s 734 mmHg 33%
    18:00 +34°C° 0 mm 1 m/s 734 mmHg 36%
    19:00 +32°C° 0 mm 1 m/s 734 mmHg 42%
    20:00 +31°C° 0 mm 1 m/s 735 mmHg 48%
    21:00 +29°C° 0 mm 1 m/s 736 mmHg 54%
    22:00 +28°C° 0 mm 1 m/s 736 mmHg 62%
    23:00 +28°C° 0 mm 1 m/s 736 mmHg 70%

    Demain, 25 Janvier, Vendredi

    Heure Température Précipitation Vent Pression Humidité
    00:00 +27°C° 0 mm 1 m/s 737 mmHg 78%
    01:00 +27°C° 0 mm 1 m/s 736 mmHg 82%
    02:00 +26°C° 0 mm 2 m/s 736 mmHg 86%
    03:00 +26°C° 0 mm 2 m/s 736 mmHg 90%
    04:00 +25°C° 0 mm 1 m/s 736 mmHg 92%
    05:00 +25°C° 0 mm 1 m/s 736 mmHg 93%
    06:00 +25°C° 0 mm 1 m/s 736 mmHg 95%
    07:00 +26°C° 0 mm 1 m/s 736 mmHg 88%
    08:00 +27°C° 0 mm 1 m/s 737 mmHg 81%
    09:00 +28°C° 0 mm 2 m/s 737 mmHg 75%
    10:00 +31°C° 0 mm 2 m/s 737 mmHg 65%
    11:00 +33°C° 0 mm 1 m/s 737 mmHg 55%
    12:00 +35°C° 0 mm 1 m/s 737 mmHg 45%
    13:00 +37°C° 0 mm 1 m/s 736 mmHg 40%
    14:00 +39°C° 0 mm 1 m/s 735 mmHg 34%
    15:00 +38°C° 0 mm 0 m/s 734 mmHg 28%
    16:00 +39°C° 0 mm 1 m/s 734 mmHg 31%
    17:00 +36°C° 0 mm 1 m/s 734 mmHg 35%
    18:00 +35°C° 0 mm 1 m/s 734 mmHg 38%
    19:00 +33°C° 0 mm 1 m/s 734 mmHg 42%
    20:00 +32°C° 0 mm 1 m/s 735 mmHg 46%
    21:00 +31°C° 0 mm 1 m/s 736 mmHg 49%
    22:00 +30°C° 0 mm 1 m/s 736 mmHg 57%
    23:00 +29°C° 0 mm 2 m/s 736 mmHg 64%

    Après-demain, 26 Janvier, Samedi

    Heure Température Précipitation Vent Pression Humidité
    00:00 +28°C° 0 mm 2 m/s 736 mmHg 71%
    01:00 +27°C° 0 mm 2 m/s 736 mmHg 76%
    02:00 +27°C° 0 mm 2 m/s 735 mmHg 80%
    03:00 +26°C° 0 mm 1 m/s 735 mmHg 85%
    04:00 +26°C° 0.1 mm 1 m/s 735 mmHg 87%
    05:00 +25°C° 0.1 mm 1 m/s 735 mmHg 89%
    06:00 +25°C° 0.1 mm 1 m/s 736 mmHg 91%
    07:00 +26°C° 0 mm 1 m/s 736 mmHg 84%
    08:00 +28°C° 0 mm 2 m/s 737 mmHg 78%
    09:00 +29°C° 0 mm 2 m/s 738 mmHg 71%
    10:00 +32°C° 0 mm 1 m/s 737 mmHg 59%
    11:00 +35°C° 0 mm 1 m/s 737 mmHg 47%
    12:00 +40°C° 0 mm 1 m/s 737 mmHg 35%
    13:00 +36°C° 0 mm 0 m/s 736 mmHg 34%
    14:00 +36°C° 0 mm 0 m/s 735 mmHg 33%
    15:00 +36°C° 0 mm 0 m/s 734 mmHg 32%
    16:00 +35°C° 0 mm 0 m/s 734 mmHg 34%
    17:00 +36°C° 0 mm 1 m/s 734 mmHg 35%
    18:00 +36°C° 0 mm 1 m/s 734 mmHg 37%
    19:00 +34°C° 0 mm 1 m/s 735 mmHg 41%
    20:00 +32°C° 0 mm 1 m/s 735 mmHg 45%
    21:00 +31°C° 0 mm 1 m/s 736 mmHg 49%
    22:00 +30°C° 0 mm 1 m/s 736 mmHg 58%
    23:00 +29°C° 0 mm 2 m/s 736 mmHg 67%

    27 Janvier, Dimanche

    Heure Température Précipitation Vent Pression Humidité
    00:00 +28°C° 0 mm 2 m/s 737 mmHg 76%
    01:00 +28°C° 0 mm 2 m/s 736 mmHg 78%
    02:00 +27°C° 0 mm 2 m/s 736 mmHg 81%
    03:00 +27°C° 0 mm 2 m/s 736 mmHg 83%
    04:00 +27°C° 0 mm 2 m/s 736 mmHg 84%
    05:00 +26°C° 0 mm 2 m/s 736 mmHg 85%
    06:00 +26°C° 0 mm 2 m/s 736 mmHg 87%
    07:00 +27°C° 0 mm 2 m/s 737 mmHg 81%
    08:00 +28°C° 0 mm 1 m/s 738 mmHg 76%
    09:00 +29°C° 0 mm 1 m/s 738 mmHg 70%
    10:00 +32°C° 0 mm 1 m/s 738 mmHg 59%
    11:00 +35°C° 0 mm 1 m/s 738 mmHg 48%
    12:00 +39°C° 0 mm 1 m/s 737 mmHg 37%
    13:00 +40°C° 0 mm 1 m/s 736 mmHg 32%
    14:00 +39°C° 0 mm 0 m/s 735 mmHg 27%
    15:00 +40°C° 0 mm 0 m/s 734 mmHg 22%
    16:00 +38°C° 0 mm 0 m/s 734 mmHg 25%
    17:00 +39°C° 0 mm 1 m/s 734 mmHg 27%
    18:00 +36°C° 0 mm 1 m/s 734 mmHg 29%
    19:00 +34°C° 0 mm 1 m/s 734 mmHg 34%
    20:00 +32°C° 0 mm 1 m/s 735 mmHg 39%
    21:00 +30°C° 0 mm 1 m/s 736 mmHg 43%
    22:00 +30°C° 0 mm 1 m/s 736 mmHg 51%
    23:00 +29°C° 0 mm 2 m/s 736 mmHg 59%

    28 Janvier, Lundi

    Heure Température Précipitation Vent Pression Humidité
    00:00 +29°C° 0 mm 2 m/s 736 mmHg 67%
    01:00 +28°C° 0 mm 2 m/s 736 mmHg 72%
    02:00 +28°C° 0 mm 2 m/s 736 mmHg 77%
    03:00 +27°C° 0 mm 1 m/s 735 mmHg 82%
    04:00 +27°C° 0.1 mm 1 m/s 735 mmHg 84%
    05:00 +27°C° 0.1 mm 1 m/s 736 mmHg 85%
    06:00 +26°C° 0.1 mm 1 m/s 736 mmHg 86%
    07:00 +27°C° 0.1 mm 2 m/s 736 mmHg 81%
    08:00 +28°C° 0.1 mm 2 m/s 737 mmHg 76%
    09:00 +29°C° 0.1 mm 2 m/s 737 mmHg 70%
    10:00 +32°C° 0 mm 2 m/s 737 mmHg 60%
    11:00 +34°C° 0 mm 1 m/s 737 mmHg 50%
    12:00 +36°C° 0 mm 1 m/s 736 mmHg 40%
    13:00 +39°C° 0 mm 1 m/s 735 mmHg 35%
    14:00 +40°C° 0 mm 1 m/s 734 mmHg 30%
    15:00 +41°C° 0 mm 1 m/s 733 mmHg 25%
    16:00 +39°C° 0 mm 1 m/s 733 mmHg 29%
    17:00 +37°C° 0 mm 1 m/s 733 mmHg 32%
    18:00 +35°C° 0 mm 1 m/s 733 mmHg 36%
    19:00 +34°C° 0 mm 1 m/s 734 mmHg 41%
    20:00 +33°C° 0 mm 1 m/s 735 mmHg 46%
    21:00 +32°C° 0 mm 1 m/s 736 mmHg 51%
    22:00 +30°C° 0.3 mm 1 m/s 736 mmHg 61%
    23:00 +29°C° 0.3 mm 2 m/s 736 mmHg 71%

    29 Janvier, Mardi

    Heure Température Précipitation Vent Pression Humidité
    00:00 +27°C° 0.3 mm 2 m/s 736 mmHg 81%
    01:00 +27°C° 0.6 mm 2 m/s 736 mmHg 85%
    02:00 +26°C° 0.6 mm 2 m/s 735 mmHg 88%
    03:00 +26°C° 0.6 mm 2 m/s 735 mmHg 92%
    04:00 +25°C° 0.1 mm 1 m/s 735 mmHg 93%
    05:00 +25°C° 0.1 mm 1 m/s 736 mmHg 94%
    06:00 +25°C° 0.1 mm 1 m/s 736 mmHg 95%
    07:00 +26°C° 0 mm 1 m/s 736 mmHg 89%
    08:00 +27°C° 0 mm 1 m/s 737 mmHg 83%
    09:00 +28°C° 0 mm 2 m/s 737 mmHg 77%
    10:00 +30°C° 0 mm 2 m/s 737 mmHg 67%
    11:00 +34°C° 0 mm 2 m/s 736 mmHg 56%
    12:00 +36°C° 0 mm 2 m/s 736 mmHg 45%
    13:00 +36°C° 0 mm 1 m/s 735 mmHg 43%
    14:00 +36°C° 0 mm 1 m/s 734 mmHg 40%
    15:00 +34°C° 0 mm 0 m/s 733 mmHg 38%
    16:00 +34°C° 0 mm 0 m/s 734 mmHg 40%
    17:00 +35°C° 0 mm 1 m/s 734 mmHg 41%
    18:00 +34°C° 0 mm 1 m/s 734 mmHg 43%
    19:00 +33°C° 0.1 mm 1 m/s 734 mmHg 50%
    20:00 +31°C° 0.1 mm 2 m/s 735 mmHg 58%
    21:00 +29°C° 0.1 mm 2 m/s 736 mmHg 65%
    22:00 +29°C° 0 mm 2 m/s 736 mmHg 69%
    23:00 +28°C° 0 mm 2 m/s 736 mmHg 73%
    Voir plus